Tracking 19562 objects as of 24-Mar-2019
HD Live streaming from Space Station
objects crossing your sky now

OPS 9333 (IDSCS 18)

Track OPS 9333 (IDSCS 18) now!
OPS 9333 (IDSCS 18) is classified as:


NORAD ID: 2864
Int'l Code: 1967-066C
Perigee: 33,062.9 km
Apogee: 33,579.1 km
Inclination: 3.7 °
Period: 1,311.6 minutes
Semi major axis: 39691 km
RCS: 0.1584 m2 (medium)
Launch date: July 1, 1967
Source: United States (US)
Launch site: AIR FORCE EASTERN TEST RANGE (AFETR)
aabbcc
Your satellite tracking list
Your tracking list is empty




NASA's NSSDC Master Catalog

Two Line Element Set (TLE):
1  2864U 67066C   19076.25361066 -.00000128 +00000-0 +00000-0 0  9999
2  2864 003.6783 281.9605 0065014 000.3781 234.4355 01.09786386102451
Source of the keplerian elements: AFSPC